Dewpoint
9 8 9 11 11 10 9 7 8 8 6 7 9 7 7 10 10 10 10 12 12 12 12 12 12 11 9 9 11 11 11 10 10 10 10 9 8 9 4 5 4 3 6
10 9 7 9 11 9 9 9 9 9 7 7 8 8 9 7 10 10 10 12 12 12 12 12 11 10 10 11 11 11 11 10 10 9 9 9 8 6 4 6 6 6 6
9 9 10 11 10 10 10 11 10 10 8 9 9 9 9 9 10 9 8 10 11 11 11 12 12 11 11 11 12 10 11 11 10 10 10 9 8 8 8 7 7 7 7
5 7 9 10 10 9 9 8 10 11 11 10 10 10 9 9 8 8 9 10 11 10 10 11 12 12 11 11 11 10 10 10 12 11 11 8 10 9 8 7 7 7 7
5 5 5 5 6 9 9 9 9 10 11 11 11 11 11 11 10 9 8 11 11 11 11 12 12 12 12 11 9 10 9 8 4 5 0 -1 0 1 7 8 6 6 6
4 4 3 3 3 3 4 6 8 9 10 10 10 10 10 11 10 10 10 11 10 10 11 11 11 12 11 9 10 10 8 5 1 -1 -1 -1 -1 -0 1 3 3 5 4
3 3 3 3 3 2 2 3 3 4 4 9 9 9 10 10 10 10 10 10 10 10 10 11 11 10 10 8 4 1 -1 -1 -2 -2 -1 -0 -0 0 1 2 3 5 5
2 2 2 2 2 2 2 1 2 2 3 3 7 6 7 8 9 9 9 10 10 10 11 11 11 10 8 9 6 6 6 3 -1 -1 -1 -1 -1 -0 0 3 5 6 5
-1 -1 -0 -0 0 1 1 0 1 1 2 2 2 5 5 7 8 9 9 9 10 10 11 10 8 8 8 7 7 7 3 -0 -2 -2 -2 -1 -1 -0 0 1 3 4 5
-2 -3 -3 -2 -1 -1 -1 -0 0 1 1 2 3 4 6 6 5 4 5 7 10 11 11 9 8 7 7 6 4 0 -0 1 2 1 -1 -1 -1 -0 -0 0 0 1 4
-3 -3 -4 -5 -4 1 0 -1 -1 1 1 2 2 3 3 2 2 2 4 9 10 10 8 8 6 2 -0 -1 1 4 4 3 1 0 0 -1 -1 -0 -0 0 0 4 4
-2 -3 -3 -3 -4 -5 -0 2 2 2 2 2 2 2 2 2 1 2 7 10 9 8 7 2 1 1 3 4 4 3 2 2 1 0 -0 -0 -0 1 0 0 1 3 4
-2 -2 -3 -3 -3 -3 -4 -4 1 2 2 2 2 2 2 1 1 2 6 7 5 3 2 2 3 3 4 2 3 3 1 0 0 -0 -0 -0 0 0 -0 1 1 1 2
-1 -2 -2 -2 -2 -2 -3 -3 -4 -3 -1 2 2 2 2 2 2 3 4 4 3 2 2 4 5 3 2 3 3 2 0 0 -0 -0 -0 -0 0 0 1 1 1 1 1
-1 -1 -2 -2 -2 -2 -1 -1 -2 -2 -2 -2 -1 0 3 3 3 3 3 3 2 3 4 3 2 4 4 3 1 1 0 -0 0 0 -0 -0 0 0 0 -0 -0 -0 0
-1 -1 -1 -1 -2 -2 -2 -1 -1 1 0 -0 -1 1 2 3 3 3 3 2 2 3 2 3 4 3 1 1 1 0 -0 -0 -0 -0 0 0 0 0 0 0 -0 -0 -0
0 -0 -1 -1 -2 -1 -1 -2 -2 -2 -1 0 2 2 2 3 4 4 3 3 3 2 3 3 1 1 1 0 0 -0 -0 -1 -1 0 -0 0 0 0 0 -3 -3 0 -1
-1 -1 -1 -1 -2 -3 -2 -1 -0 -1 -2 -2 0 3 3 4 4 4 3 3 2 2 2 1 1 1 1 0 -0 -0 -1 -1 -0 -0 -0 -0 -0 -0 -1 -14 -22 -23 -16
-1 -1 -1 -1 -1 -2 -2 -0 -1 0 -1 -1 -2 0 3 3 4 4 4 3 2 2 1 1 1 1 0 -0 -0 -1 -1 -1 -1 -1 -1 -0 -1 -1 -15 -23 -23 -22 -23
-5 -3 -3 -2 -1 -1 -1 -0 0 0 0 -1 -1 -1 2 4 4 4 4 3 2 2 2 2 1 1 -0 -0 -1 -1 -1 -1 -1 -1 -1 -2 -2 -17 -22 -19 -22 -23 -22
-5 -4 -1 -2 -3 -1 0 -0 0 0 0 -0 -0 0 1 3 4 4 3 3 2 2 2 2 1 0 -0 -0 -1 -1 -0 -1 -1 -2 -4 -8 -21 -23 -21 -19 -25 -23 -21
-2 -2 -2 -2 -3 -3 -1 1 1 1 1 1 2 0 1 3 4 4 3 2 2 2 2 2 1 -0 -0 -0 -0 -0 -0 -1 -2 -10 -18 -22 -22 -20 -21 -25 -27 -24 -21
-3 -2 -2 -1 -1 0 0 1 1 1 1 2 3 2 2 3 3 3 2 2 2 2 2 2 1 -0 -0 -0 -0 -0 -0 -1 -2 -16 -22 -21 -21 -21 -21 -22 -26 -28 -22
-1 -1 -0 -0 -1 -1 0 1 2 1 1 3 3 2 2 3 3 3 2 2 2 2 2 1 0 -0 1 1 1 -0 -0 -1 -3 -17 -24 -21 -20 -20 -20 -20 -22 -25 -24
-2 -1 -0 -1 -0 -0 0 1 2 1 1 3 3 2 3 3 3 3 2 2 2 2 2 1 0 0 1 1 0 0 -0 -1 -1 -12 -21 -23 -22 -21 -21 -20 -20 -21 -23
-2 -1 -1 -1 -1 -0 0 1 2 1 2 3 3 3 3 3 3 3 2 2 2 2 1 1 1 0 1 1 0 -0 -1 -1 -2 -8 -17 -22 -24 -24 -23 -23 -22 -22 -23
Wind_Speed
25 14 12 23 32 30 29 24 29 28 28 24 31 29 24 21 22 21 21 19 21 20 17 13 15 18 16 13 12 10 8 9 9 12 14 14 18 20 19 14 8 12 8
27 28 27 21 30 31 45 32 31 28 30 27 32 32 29 22 31 23 25 24 24 22 23 20 16 17 16 15 14 13 12 9 9 13 14 11 11 9 6 7 10 9 11
24 30 30 29 29 28 28 32 31 32 34 37 30 27 31 35 31 26 27 29 27 26 27 27 21 18 17 19 18 15 14 13 14 15 14 6 5 9 13 12 12 12 11
13 15 19 23 26 26 26 28 29 35 37 36 28 26 27 29 32 30 33 32 26 27 29 32 31 28 27 21 17 14 16 16 15 16 19 19 19 10 7 9 9 6 9
8 10 10 9 7 17 24 26 27 27 30 33 30 35 31 27 31 31 37 35 30 29 32 34 32 25 22 19 13 14 15 15 15 19 17 16 16 16 16 12 14 12 12
8 8 7 7 6 6 9 11 21 25 22 23 24 25 25 26 28 31 33 32 31 32 33 30 21 17 10 10 12 10 13 12 14 19 16 14 13 13 14 16 17 18 17
16 11 9 9 9 8 11 14 14 14 16 19 19 21 20 20 20 24 24 22 22 23 27 24 14 12 5 1 2 5 10 12 13 14 15 15 15 15 16 17 18 18 20
15 13 12 14 16 15 14 14 16 20 19 15 17 16 17 17 19 21 19 18 17 17 18 19 18 18 17 25 19 18 24 17 14 14 13 15 15 15 16 17 15 16 17
7 4 4 7 12 16 17 19 18 17 19 20 18 18 17 18 19 19 18 19 17 18 17 15 12 17 19 19 18 17 15 16 15 14 15 16 17 17 17 17 17 17 12
11 7 3 2 2 7 11 14 18 15 16 16 15 15 14 14 13 14 14 16 16 17 16 15 13 12 12 13 12 12 12 13 15 17 18 17 19 18 18 18 18 18 17
13 12 10 8 5 4 4 10 14 15 14 15 14 13 12 12 11 10 10 12 15 16 15 14 13 11 10 10 12 14 16 18 18 17 16 19 20 18 17 18 17 14 16
12 11 11 11 11 10 5 1 5 8 9 10 10 11 11 10 10 10 12 17 19 19 18 17 14 13 14 14 17 16 15 16 17 16 17 18 17 16 18 17 16 16 16
13 10 9 8 8 8 8 5 2 4 7 8 9 11 11 11 11 12 16 18 19 19 17 16 15 16 15 12 13 14 16 16 17 18 17 16 17 18 18 17 16 16 16
13 9 9 9 9 9 7 6 6 5 7 10 12 13 13 13 13 15 18 20 21 20 18 16 16 14 14 14 14 14 15 17 17 17 17 16 17 18 17 16 15 15 15
12 13 13 13 10 8 10 10 11 11 12 12 13 14 15 16 18 20 21 22 22 20 18 16 15 15 17 16 13 15 17 17 18 18 17 15 13 11 11 13 14 14 13
17 17 17 18 16 14 13 11 11 14 15 16 15 17 19 20 21 22 24 26 25 23 20 17 17 16 16 15 15 17 16 17 17 15 13 11 10 10 11 12 13 12 12
17 19 19 19 19 19 19 18 17 17 18 19 21 22 21 23 25 26 27 27 26 23 19 17 16 16 15 15 16 16 15 14 13 11 10 10 10 10 10 9 6 7 9
23 25 24 23 22 22 21 22 21 21 22 22 24 25 26 25 27 28 28 27 27 24 20 19 18 16 15 15 14 14 14 14 10 11 11 11 11 10 10 8 7 7 8
25 26 26 27 28 26 24 25 24 23 24 24 25 26 29 28 29 28 27 28 27 23 21 20 17 15 14 14 13 13 12 12 9 11 12 12 12 11 10 8 8 7 6
30 32 32 32 31 29 29 29 26 25 25 23 24 26 29 30 28 27 28 27 24 23 21 19 16 15 15 14 13 10 9 9 9 12 13 12 11 11 9 8 8 8 7
38 36 36 35 35 31 28 31 30 28 23 24 24 24 25 28 27 27 27 26 25 24 22 19 18 16 15 13 13 8 8 8 10 10 11 11 10 10 9 8 8 9 8
33 34 38 37 34 31 30 32 31 26 26 24 24 24 23 28 28 27 26 26 26 25 22 20 19 17 15 13 12 9 9 11 12 11 11 12 11 10 9 8 9 10 9
32 34 36 35 32 31 30 32 31 26 26 25 23 23 22 27 27 27 28 28 28 26 24 22 18 15 14 13 12 11 12 13 13 12 12 12 12 11 10 9 9 9 9
33 36 31 33 35 36 32 29 28 28 25 24 22 22 24 28 28 29 29 29 29 28 26 22 18 14 12 10 11 13 14 14 14 14 13 13 12 12 11 11 9 8 10
36 36 32 40 40 38 38 27 24 25 23 21 20 23 25 30 32 32 32 31 29 25 21 18 16 16 14 11 12 12 14 15 15 15 16 15 14 14 13 12 11 10 10
34 33 39 39 35 29 26 25 22 21 20 17 17 21 24 28 30 29 29 26 23 22 21 19 18 15 13 14 13 13 15 17 18 18 18 16 14 13 12 12 12 12 11
Wind_Direction
182 216 253 216 197 182 192 178 184 189 195 222 216 228 233 239 240 233 232 237 236 234 235 244 236 225 220 219 216 214 225 237 255 265 274 277 283 284 289 293 299 311 312
176 187 193 209 194 201 199 211 210 205 202 224 222 232 226 230 244 255 260 250 246 243 239 239 242 228 218 199 211 227 233 242 249 270 283 296 293 292 270 263 286 295 294
169 184 199 199 209 210 207 211 230 216 216 226 229 225 223 230 247 250 258 256 255 252 246 240 231 216 210 213 210 216 230 250 259 265 268 286 260 289 277 278 272 282 277
139 150 169 191 204 207 212 220 223 220 233 234 235 241 240 243 248 261 265 272 268 264 259 245 235 223 222 220 224 227 248 255 256 275 273 266 261 263 276 268 265 261 261
158 154 154 162 170 192 206 220 228 232 236 233 231 241 237 234 240 245 251 272 274 272 271 258 233 238 227 206 223 249 267 262 293 286 278 274 269 266 256 270 273 273 269
223 194 190 193 206 202 205 210 221 227 231 233 234 239 245 245 246 249 249 254 261 259 256 259 265 239 213 231 244 257 260 270 274 283 281 275 269 269 268 267 275 277 279
237 228 236 249 245 252 247 238 231 226 228 234 236 239 244 244 246 248 253 258 253 249 250 252 223 171 164 142 312 344 320 294 282 280 282 284 282 276 272 268 270 271 277
225 235 245 253 251 246 244 241 241 238 234 234 234 241 245 244 247 251 253 258 256 258 244 217 234 250 234 253 248 275 262 292 288 284 287 288 285 280 277 273 270 275 268
140 179 225 251 247 242 241 244 249 244 241 241 238 238 242 246 248 252 253 254 249 242 230 232 215 229 240 257 241 242 262 267 277 286 288 288 284 279 275 271 269 266 268
90 86 57 33 307 257 246 243 237 241 246 241 236 235 236 241 246 251 251 245 231 216 219 221 239 246 241 234 227 237 245 269 282 285 285 287 282 276 272 271 269 261 253
72 69 61 40 19 9 257 246 237 235 243 236 235 242 248 250 249 243 234 209 203 209 215 213 198 197 210 215 222 250 268 272 274 279 282 285 277 272 273 274 272 253 248
34 34 37 34 30 26 23 43 225 233 233 228 231 238 245 248 248 240 219 206 205 204 197 196 196 206 227 253 268 274 279 284 288 288 284 281 277 271 274 271 262 249 247
6 355 354 356 354 2 14 6 271 236 237 241 249 254 256 251 240 225 208 203 199 199 205 209 221 237 246 253 264 279 286 284 282 278 278 276 271 271 274 274 267 260 247
333 340 336 321 302 298 299 287 283 274 254 247 244 245 244 242 236 223 212 207 206 207 211 229 235 229 244 255 272 283 281 281 280 278 272 270 268 274 277 276 270 264 257
338 336 341 347 346 321 288 280 272 258 252 245 247 246 242 235 227 222 217 216 211 219 237 230 230 250 263 270 273 277 280 280 276 275 276 273 270 272 273 274 267 261 257
6 1 354 345 337 329 315 303 285 263 254 250 249 245 240 236 234 230 224 218 221 230 225 232 243 253 253 258 264 269 277 280 278 270 266 265 265 266 273 272 266 256 248
356 345 340 337 331 324 317 305 293 282 272 257 246 239 236 233 230 228 227 228 227 223 227 238 234 239 244 253 263 270 277 284 276 264 254 248 256 263 269 264 256 246 233
334 330 327 321 316 314 312 307 300 289 277 268 254 241 233 228 224 223 221 220 219 219 225 226 229 237 245 259 271 285 297 299 288 251 244 248 252 254 249 251 252 249 243
316 313 311 309 307 306 304 300 299 296 285 273 263 249 236 232 228 224 224 222 221 222 223 224 230 238 249 259 268 277 288 294 281 242 237 239 240 238 240 239 237 232 233
306 302 299 298 294 296 298 293 293 290 291 285 269 257 239 233 231 229 224 223 222 221 218 225 232 240 245 249 263 267 287 288 266 236 232 230 223 232 237 233 228 221 217
305 304 301 301 296 292 291 285 287 285 292 284 273 259 246 232 231 227 221 220 217 214 218 223 230 236 238 246 255 258 268 263 257 239 225 215 220 227 228 227 221 213 209
316 307 305 297 294 294 290 286 278 285 286 282 273 257 243 224 223 220 218 214 214 217 220 226 232 236 236 244 243 246 246 253 245 232 223 220 221 224 228 222 221 216 212
312 315 310 309 303 300 296 286 280 281 279 278 272 250 235 219 218 216 213 213 214 218 223 227 231 235 232 242 231 233 235 246 240 231 224 225 223 224 224 219 223 220 213
313 319 312 306 302 299 295 289 279 278 272 274 266 236 225 214 212 212 215 218 218 220 223 225 229 228 228 248 254 231 230 236 229 227 225 223 221 222 222 225 224 221 213
321 320 311 307 296 290 287 288 272 268 266 265 252 227 219 214 212 211 214 214 220 226 226 227 230 229 233 249 248 247 234 232 232 223 224 222 221 222 224 225 227 227 224
322 323 316 314 308 294 281 282 259 255 249 248 238 223 217 213 212 216 212 213 218 219 218 218 232 233 232 234 241 232 231 223 222 224 225 224 223 223 225 228 230 232 235
Height
1465 1472 1479 1487 1492 1498 1504 1505 1508 1514 1517 1518 1519 1523 1530 1535 1537 1537 1538 1542 1545 1548 1550 1552 1552 1552 1552 1555 1558 1562 1562 1562 1563 1564 1563 1563 1563 1561 1559 1558 1558 1557 1556
1468 1478 1481 1485 1489 1494 1501 1504 1507 1512 1515 1516 1517 1523 1529 1529 1531 1534 1536 1540 1542 1544 1545 1547 1548 1549 1550 1551 1555 1558 1559 1560 1560 1561 1559 1559 1560 1557 1555 1555 1554 1554 1553
1467 1471 1476 1478 1486 1490 1495 1501 1502 1508 1512 1514 1515 1519 1525 1529 1532 1534 1534 1536 1537 1538 1539 1542 1544 1545 1547 1548 1551 1553 1555 1556 1557 1557 1558 1556 1556 1556 1553 1551 1551 1550 1550
1465 1466 1472 1481 1486 1491 1489 1494 1500 1505 1508 1512 1515 1517 1520 1522 1524 1527 1527 1528 1531 1533 1534 1535 1536 1537 1540 1544 1545 1547 1550 1551 1552 1552 1552 1552 1551 1552 1550 1547 1547 1546 1546
1470 1474 1476 1480 1484 1484 1488 1496 1500 1503 1504 1504 1507 1511 1513 1514 1519 1522 1524 1524 1524 1524 1526 1526 1522 1529 1529 1534 1541 1544 1546 1545 1543 1548 1549 1548 1548 1547 1547 1544 1544 1545 1544
1473 1476 1478 1481 1483 1486 1490 1493 1495 1499 1499 1501 1505 1506 1508 1508 1511 1517 1518 1518 1518 1520 1522 1522 1524 1520 1528 1534 1538 1538 1542 1541 1542 1545 1546 1545 1543 1543 1543 1542 1539 1541 1539
1473 1474 1476 1480 1482 1484 1485 1488 1492 1494 1496 1498 1498 1499 1502 1503 1507 1512 1512 1513 1513 1515 1516 1519 1522 1516 1527 1533 1536 1536 1537 1540 1540 1540 1540 1540 1539 1539 1538 1538 1537 1536 1536
1468 1472 1474 1477 1479 1480 1482 1486 1489 1490 1492 1492 1493 1496 1499 1499 1503 1505 1507 1508 1509 1510 1511 1515 1517 1518 1520 1528 1527 1530 1531 1533 1536 1535 1534 1534 1534 1533 1533 1533 1533 1533 1532
1468 1472 1475 1478 1478 1478 1480 1482 1484 1484 1486 1488 1489 1491 1493 1496 1499 1501 1501 1503 1505 1506 1509 1512 1514 1517 1518 1519 1519 1523 1529 1530 1529 1528 1528 1528 1529 1530 1528 1528 1528 1529 1528
1474 1475 1476 1477 1474 1474 1475 1477 1478 1479 1482 1482 1485 1488 1489 1491 1494 1496 1497 1498 1502 1504 1507 1509 1510 1512 1513 1515 1516 1520 1523 1526 1526 1522 1522 1521 1523 1524 1523 1523 1522 1522 1523
1474 1474 1475 1474 1474 1473 1472 1472 1473 1476 1479 1479 1481 1484 1485 1488 1490 1491 1492 1494 1498 1502 1504 1506 1507 1509 1512 1512 1515 1517 1517 1519 1520 1517 1516 1516 1517 1517 1516 1517 1517 1518 1519
1476 1476 1475 1475 1474 1472 1471 1471 1473 1474 1475 1477 1478 1481 1483 1484 1485 1488 1488 1490 1493 1497 1500 1501 1504 1506 1509 1510 1511 1512 1513 1513 1512 1511 1512 1512 1513 1512 1511 1510 1511 1512 1513
1480 1479 1478 1476 1475 1475 1473 1473 1473 1472 1474 1474 1474 1476 1478 1481 1482 1484 1486 1488 1491 1494 1497 1499 1502 1504 1504 1505 1507 1507 1506 1506 1508 1507 1507 1506 1508 1507 1505 1507 1507 1508 1506
1480 1480 1480 1478 1476 1474 1473 1472 1472 1471 1471 1471 1472 1474 1476 1477 1479 1481 1483 1487 1489 1492 1494 1495 1497 1499 1500 1500 1501 1500 1501 1501 1502 1502 1501 1501 1502 1502 1502 1503 1502 1502 1502
1478 1476 1475 1474 1473 1472 1471 1471 1471 1469 1469 1469 1470 1471 1473 1474 1476 1478 1480 1483 1485 1487 1489 1491 1492 1493 1495 1495 1494 1495 1495 1496 1497 1497 1495 1494 1496 1497 1496 1497 1497 1497 1496
1477 1476 1475 1474 1473 1472 1472 1471 1469 1467 1467 1466 1466 1467 1468 1469 1471 1473 1475 1478 1480 1483 1486 1487 1488 1489 1489 1491 1491 1492 1492 1492 1491 1490 1490 1491 1492 1492 1492 1493 1492 1491 1493
1476 1475 1473 1471 1470 1469 1467 1465 1462 1462 1461 1461 1463 1463 1463 1464 1466 1469 1470 1471 1475 1476 1479 1482 1484 1485 1486 1487 1487 1485 1485 1485 1484 1484 1486 1488 1488 1489 1488 1488 1489 1489 1490
1473 1470 1469 1466 1465 1463 1461 1458 1456 1455 1455 1455 1456 1456 1457 1458 1461 1462 1464 1467 1471 1471 1473 1477 1480 1479 1480 1480 1479 1478 1478 1479 1478 1480 1483 1484 1484 1485 1486 1486 1486 1487 1488
1472 1470 1466 1462 1460 1458 1455 1451 1449 1448 1446 1446 1447 1447 1448 1449 1451 1454 1457 1461 1463 1463 1467 1471 1472 1474 1474 1474 1474 1474 1474 1474 1475 1477 1479 1480 1481 1482 1483 1483 1485 1485 1486
1464 1459 1456 1452 1450 1448 1445 1442 1440 1438 1437 1437 1437 1438 1439 1441 1441 1445 1448 1453 1455 1458 1461 1465 1467 1467 1469 1469 1469 1469 1469 1471 1472 1474 1475 1476 1477 1479 1480 1481 1481 1482 1484
1453 1450 1446 1442 1439 1436 1434 1430 1428 1426 1427 1426 1426 1426 1427 1431 1435 1437 1442 1444 1448 1452 1454 1458 1461 1462 1463 1464 1464 1465 1466 1467 1469 1470 1472 1473 1475 1476 1477 1478 1479 1481 1482
1448 1445 1438 1433 1431 1429 1426 1421 1418 1419 1417 1416 1416 1417 1419 1422 1426 1430 1434 1437 1442 1446 1449 1453 1455 1457 1458 1458 1459 1461 1463 1464 1466 1467 1469 1470 1471 1473 1475 1476 1477 1478 1481
1443 1438 1433 1425 1421 1420 1417 1412 1409 1410 1409 1407 1407 1408 1411 1413 1418 1422 1427 1431 1436 1440 1444 1447 1450 1451 1452 1454 1454 1457 1459 1461 1463 1465 1465 1468 1469 1470 1472 1474 1474 1476 1478
1435 1430 1425 1419 1413 1411 1408 1404 1402 1401 1399 1398 1398 1399 1402 1406 1411 1416 1421 1426 1430 1434 1438 1441 1444 1445 1447 1449 1450 1452 1455 1456 1458 1461 1462 1465 1466 1468 1469 1471 1472 1473 1475
1430 1425 1418 1413 1406 1402 1398 1396 1395 1394 1392 1391 1390 1392 1395 1399 1404 1409 1414 1418 1424 1428 1432 1435 1439 1440 1441 1444 1446 1447 1449 1452 1454 1457 1459 1460 1462 1464 1466 1468 1469 1470 1472
1423 1416 1411 1402 1395 1391 1389 1388 1387 1387 1387 1385 1386 1387 1390 1393 1399 1403 1410 1415 1420 1424 1426 1430 1433 1435 1436 1438 1440 1442 1445 1447 1450 1452 1454 1456 1458 1460 1462 1464 1466 1467 1469